Location: Observatoire
(46.1952°N, 5.3391°E)
Time: 06:49:10
(UTC+01:00)

Tiros 1 despin weight - Pass Details

Date: 26 February 2026
Orbit: 556 x 593 km, 48.2° (Epoch: 13 March)

Event Time Altitude Azimuth Distance (km) Brightness Sun altitude
Rises 18:27:15 0° 285° (WNW) 2,736 ? -2.0°
Reaches altitude 10° 18:29:49 10° 271° (W) 1,836 ? -2.4°
Maximum altitude 18:33:10 24° 218° (SW) 1,179 ? -3.0°
Drops below altitude 10° 18:36:32 10° 164° (SSE) 1,828 ? -3.6°
Sets 18:39:05 0° 150° (SSE) 2,721 ? -4.0°
